The Dalles, WA

6:34 AM PST on November 21, 2017 (GMT -0800)
Columbia Gorge Regional-The Dalles

Weather History for KDLS - February, 2014

Change the Weather History Date:

Tuesday, February 18, 2014

  Actual Average Record
Temperature  
Mean Temperature 39 °F -  
Max Temperature 46 °F 48 °F 67 °F (1977)
Min Temperature 32 °F 34 °F 10 °F (2006)
Degree Days  
Heating Degree Days 26    
Moisture  
Dew Point 36 °F    
Average Humidity 87    
Maximum Humidity 96    
Minimum Humidity 71    
Precipitation  
Precipitation 0.20 in - - ()
Sea Level Pressure  
Sea Level Pressure 29.90 in    
Wind  
Wind Speed 4 mph (West)    
Max Wind Speed 20 mph    
Max Gust Speed 30 mph    
Visibility 10 miles    
Events Rain    
Averages and records for this station are not official NWS values.
T = Trace of Precipitation, MM = Missing Value Source: NWS Daily Summary

Daily Weather History Graph

Daily Weather History Graph

Search for Another Location

Airport or City:

Trip Planner

Search our weather history database for the weather conditions in past years. The results will help you decide how hot, cold, wet, or windy it might be!

Date:

Astronomy

Feb. 18, 2014 Rise Set
Actual Time 7:01 AM PST 5:36 PM PST
Civil Twilight 6:31 AM PST 6:06 PM PST
Nautical Twilight 5:56 AM PST 6:41 PM PST
Astronomical Twilight 5:22 AM PST 7:15 PM PST
Moon 9:49 PM PST (2/18) 8:24 AM PST (2/18)
Length of Visible Light 11h 35m
Length of Day
10h 34m
Waning Gibbous, 86% of the Moon is Illuminated
Feb 18
Waning Gibbous
Feb 22
Last Quarter
Mar 1
New
Mar 8
First Quarter
Mar 16
Full

Hourly Weather History & Observations

Time (PST) Temp. Windchill Dew Point Humidity Pressure Visibility Wind Dir Wind Speed Gust Speed Precip Events Conditions
12:53 AM 37.9 °F 35.5 °F 34.0 °F 86% 30.01 in 10.0 mi SSE 3.5 mph - N/A   Clear
1:53 AM 37.0 °F - 35.1 °F 93% 30.01 in 10.0 mi Calm Calm - N/A   Clear
2:53 AM 35.1 °F 32.2 °F 33.1 °F 92% 30.01 in 10.0 mi East 3.5 mph - N/A   Mostly Cloudy
3:53 AM 34.0 °F 31.0 °F 32.0 °F 92% 30.02 in 10.0 mi NE 3.5 mph - N/A   Mostly Cloudy
4:53 AM 33.1 °F - 32.0 °F 96% 30.02 in 10.0 mi Calm Calm - N/A   Partly Cloudy
5:53 AM 34.0 °F - 33.1 °F 96% 30.02 in 10.0 mi Calm Calm - N/A   Clear
6:53 AM 32.0 °F 27.5 °F 30.9 °F 96% 30.01 in 10.0 mi East 4.6 mph - N/A   Mostly Cloudy
7:53 AM 33.1 °F - 32.0 °F 96% 29.99 in 9.0 mi Calm Calm - N/A   Partly Cloudy
8:53 AM 37.9 °F 35.5 °F 35.1 °F 89% 29.96 in 10.0 mi East 3.5 mph - N/A   Overcast
9:53 AM 39.9 °F 36.7 °F 35.1 °F 83% 29.93 in 10.0 mi ESE 4.6 mph - N/A   Overcast
10:53 AM 42.1 °F - 37.0 °F 82% 29.88 in 10.0 mi Calm Calm - N/A   Mostly Cloudy
11:53 AM 43.0 °F 41.3 °F 37.9 °F 82% 29.83 in 10.0 mi NNW 3.5 mph - 0.00 in   Overcast
12:53 PM 42.1 °F 39.2 °F 39.0 °F 89% 29.75 in 10.0 mi WNW 4.6 mph - 0.00 in   Overcast
1:53 PM 43.0 °F 38.8 °F 39.9 °F 89% 29.72 in 10.0 mi NW 6.9 mph - 0.01 in   Overcast
2:53 PM 44.1 °F 40.8 °F 41.0 °F 89% 29.72 in 6.0 mi WNW 5.8 mph - 0.02 in Rain Light Rain
3:53 PM 46.0 °F 41.9 °F 43.0 °F 89% 29.73 in 7.0 mi SSW 8.1 mph - 0.08 in Rain Light Rain
4:53 PM 46.9 °F - 39.9 °F 77% 29.76 in 10.0 mi WSW 15.0 mph - 0.07 in Rain Light Rain
5:53 PM 46.9 °F - 37.9 °F 71% 29.78 in 10.0 mi WSW 16.1 mph - 0.00 in   Mostly Cloudy
6:53 PM 44.1 °F 40.8 °F 37.0 °F 76% 29.84 in 10.0 mi WNW 5.8 mph - N/A   Mostly Cloudy
7:53 PM 42.1 °F 33.3 °F 39.0 °F 89% 29.88 in 10.0 mi WSW 19.6 mph 29.9 mph 0.02 in Rain Light Rain
8:53 PM 39.9 °F 34.5 °F 34.0 °F 79% 29.90 in 10.0 mi SW 8.1 mph - 0.00 in   Mostly Cloudy
9:53 PM 39.0 °F 34.0 °F 35.1 °F 86% 29.94 in 10.0 mi West 6.9 mph - N/A   Overcast
11:53 PM 37.0 °F - 33.1 °F 86% 29.98 in 10.0 mi Calm Calm - 0.00 in   Partly Cloudy